Regional Weather Roundup
Issued by NWS

Home | Current Version | Previous Version | Graphics & Text | Print | Product List | Glossary On
Versions: 1 2 3 4 5 6 7 8 9 10 11 12 13 14 15 16 17 18 19 20 21 22 23 24 25 26 27 28 29 30 31 32 33 34 35 36 37 38 39 40 41 42 43 44 45 46 47 48 49 50
000
ASUS43 KBIS 221910
RWRND

NORTH DAKOTA REGIONAL WEATHER ROUNDUP
NATIONAL WEATHER SERVICE BISMARCK ND
200 PM CDT FRI MAY 22 2015

NOTE: "FAIR" INDICATES FEW OR NO CLOUDS BELOW 12,000 FEET WITH NO
SIGNIFICANT WEATHER AND/OR OBSTRUCTIONS TO VISIBILITY.


NDZ001>003-009>011-017-222000-
NORTHWEST NORTH DAKOTA

CITY           SKY/WX    TMP DP  RH WIND       PRES   REMARKS
WILLISTON      SUNNY     75  31  19 SE16G28   30.08F
MINOT          SUNNY     75  33  21 S12G21    30.11F
MINOT AFB      SUNNY     77  34  20 SE8       30.09F
$$

NDZ018>021-031>035-040>046-222000-
SOUTHWEST NORTH DAKOTA

CITY           SKY/WX    TMP DP  RH WIND       PRES   REMARKS
BISMARCK       SUNNY     74  36  25 S10G22    30.13F
DICKINSON      SUNNY     70  33  25 SE22G36   30.08F
GARRISON         N/A     74  32  21 S13       30.12F
HETTINGER ARPT MOSUNNY   69  32  25 SE25G32   30.10F
$$

NDZ004>008-012>016-024-026-027-054-222000-
NORTHEAST NORTH DAKOTA

CITY           SKY/WX    TMP DP  RH WIND       PRES   REMARKS
GRAND FORKS    SUNNY     75  37  25 S8        30.15F
GRND FRKS AFB  SUNNY     76  38  25 SW8G16    30.16F
DEVILS LAKE    SUNNY     73  36  25 S13       30.15S
$$

NDZ022-023-025-028>030-036>039-047>053-222000-
SOUTHEAST NORTH DAKOTA

CITY           SKY/WX    TMP DP  RH WIND       PRES   REMARKS
FARGO          SUNNY     72  40  31 VRB7      30.18F
JAMESTOWN      SUNNY     73  38  27 S12G18    30.16F
$$



USA.gov is the U.S. government's official web portal to all federal, state and local government web resources and services.